Year,Month,Day,Hour,Minute,Value (Times are PST for temperature in C)
2015,07,19,00,00,21.20
2015,07,19,00,01,21.20
2015,07,19,00,02,21.20
2015,07,19,00,03,21.20
2015,07,19,00,04,21.10
2015,07,19,00,05,21.10
2015,07,19,00,06,21.10
2015,07,19,00,07,21.10
2015,07,19,00,08,21.10
2015,07,19,00,09,21.10
2015,07,19,00,10,21.00
2015,07,19,00,11,21.00
2015,07,19,00,12,21.00
2015,07,19,00,13,21.00
2015,07,19,00,14,20.90
2015,07,19,00,15,20.90
2015,07,19,00,16,20.90
2015,07,19,00,17,20.90
2015,07,19,00,18,20.90
2015,07,19,00,19,20.80
2015,07,19,00,20,20.80
2015,07,19,00,21,20.80
2015,07,19,00,22,20.80
2015,07,19,00,23,20.80
2015,07,19,00,24,20.90
2015,07,19,00,25,20.90
2015,07,19,00,26,20.80
2015,07,19,00,27,20.80
2015,07,19,00,28,20.80
2015,07,19,00,29,20.80
2015,07,19,00,30,20.80
2015,07,19,00,31,20.80
2015,07,19,00,32,20.80
2015,07,19,00,33,20.80
2015,07,19,00,34,20.80
2015,07,19,00,35,20.70
2015,07,19,00,36,20.70
2015,07,19,00,37,20.70
2015,07,19,00,38,20.70
2015,07,19,00,39,20.70
2015,07,19,00,40,20.70
2015,07,19,00,41,20.70
2015,07,19,00,42,20.60
2015,07,19,00,43,20.60
2015,07,19,00,44,20.60
2015,07,19,00,45,20.60
2015,07,19,00,46,20.60
2015,07,19,00,47,20.60
2015,07,19,00,48,20.60
2015,07,19,00,49,20.60
2015,07,19,00,50,20.60
2015,07,19,00,51,20.60
2015,07,19,00,52,20.60
2015,07,19,00,53,20.60
2015,07,19,00,54,20.60
2015,07,19,00,55,20.60
2015,07,19,00,56,20.60
2015,07,19,00,57,20.60
2015,07,19,00,58,20.60
2015,07,19,00,59,20.60
2015,07,19,01,00,20.60
2015,07,19,01,01,20.60
2015,07,19,01,02,20.60
2015,07,19,01,03,20.60
2015,07,19,01,04,20.50
2015,07,19,01,05,20.50
2015,07,19,01,06,20.50
2015,07,19,01,07,20.50
2015,07,19,01,08,20.40
2015,07,19,01,09,20.40
2015,07,19,01,10,20.40
2015,07,19,01,11,20.40
2015,07,19,01,12,20.40
2015,07,19,01,13,20.40
2015,07,19,01,14,20.30
2015,07,19,01,15,20.30
2015,07,19,01,16,20.30
2015,07,19,01,17,20.30
2015,07,19,01,18,20.30
2015,07,19,01,19,20.30
2015,07,19,01,20,20.30
2015,07,19,01,21,20.30
2015,07,19,01,22,20.30
2015,07,19,01,23,20.30
2015,07,19,01,24,20.30
2015,07,19,01,25,20.30
2015,07,19,01,26,20.30
2015,07,19,01,27,20.30
2015,07,19,01,28,20.30
2015,07,19,01,29,20.30
2015,07,19,01,30,20.30
2015,07,19,01,31,20.30
2015,07,19,01,32,20.20
2015,07,19,01,33,20.20
2015,07,19,01,34,20.20
2015,07,19,01,35,20.20
2015,07,19,01,36,20.20
2015,07,19,01,37,20.20
2015,07,19,01,38,20.20
2015,07,19,01,39,20.20
2015,07,19,01,40,20.20
2015,07,19,01,41,20.20
2015,07,19,01,42,20.20
2015,07,19,01,43,20.20
2015,07,19,01,44,20.10
2015,07,19,01,45,20.10
2015,07,19,01,46,20.10
2015,07,19,01,47,20.10
2015,07,19,01,48,20.10
2015,07,19,01,49,20.10
2015,07,19,01,50,20.10
2015,07,19,01,51,20.10
2015,07,19,01,52,20.00
2015,07,19,01,53,20.00
2015,07,19,01,54,20.00
2015,07,19,01,55,20.00
2015,07,19,01,56,19.90
2015,07,19,01,57,19.90
2015,07,19,01,58,19.90
2015,07,19,01,59,19.90
2015,07,19,02,00,19.80
2015,07,19,02,01,19.80
2015,07,19,02,02,19.80
2015,07,19,02,03,19.70
2015,07,19,02,04,19.70
2015,07,19,02,05,19.70
2015,07,19,02,06,19.70
2015,07,19,02,07,19.60
2015,07,19,02,08,19.60
2015,07,19,02,09,19.50
2015,07,19,02,10,19.50
2015,07,19,02,11,19.50
2015,07,19,02,12,19.40
2015,07,19,02,13,19.40
2015,07,19,02,14,19.30
2015,07,19,02,15,19.30
2015,07,19,02,16,19.30
2015,07,19,02,17,19.20
2015,07,19,02,18,19.20
2015,07,19,02,19,19.20
2015,07,19,02,20,19.10
2015,07,19,02,21,19.10
2015,07,19,02,22,19.10
2015,07,19,02,23,19.10
2015,07,19,02,24,19.10
2015,07,19,02,25,19.10
2015,07,19,02,26,19.10
2015,07,19,02,27,19.10
2015,07,19,02,28,19.10
2015,07,19,02,29,19.10
2015,07,19,02,30,19.10
2015,07,19,02,31,19.10
2015,07,19,02,32,19.10
2015,07,19,02,33,19.10
2015,07,19,02,34,19.10
2015,07,19,02,35,19.10
2015,07,19,02,36,19.10
2015,07,19,02,37,19.10
2015,07,19,02,38,19.10
2015,07,19,02,39,19.10
2015,07,19,02,40,19.10
2015,07,19,02,41,19.00
2015,07,19,02,42,19.00
2015,07,19,02,43,19.00
2015,07,19,02,44,18.90
2015,07,19,02,45,18.90
2015,07,19,02,46,18.90
2015,07,19,02,47,18.90
2015,07,19,02,48,18.90
2015,07,19,02,49,18.80
2015,07,19,02,50,18.80
2015,07,19,02,51,18.80
2015,07,19,02,52,18.80
2015,07,19,02,53,18.80
2015,07,19,02,54,18.70
2015,07,19,02,55,18.70
2015,07,19,02,56,18.70
2015,07,19,02,57,18.70
2015,07,19,02,58,18.60
2015,07,19,02,59,18.60
2015,07,19,03,00,18.60
2015,07,19,03,01,18.50
2015,07,19,03,02,18.50
2015,07,19,03,03,18.50
2015,07,19,03,04,18.50
2015,07,19,03,05,18.40
2015,07,19,03,06,18.40
2015,07,19,03,07,18.40
2015,07,19,03,08,18.40
2015,07,19,03,09,18.30
2015,07,19,03,10,18.30
2015,07,19,03,11,18.30
2015,07,19,03,12,18.30
2015,07,19,03,13,18.30
2015,07,19,03,14,18.30
2015,07,19,03,15,18.30
2015,07,19,03,16,18.40
2015,07,19,03,17,18.40
2015,07,19,03,18,18.40
2015,07,19,03,19,18.50
2015,07,19,03,20,18.50
2015,07,19,03,21,18.50
2015,07,19,03,22,18.50
2015,07,19,03,23,18.50
2015,07,19,03,24,18.50
2015,07,19,03,25,18.60
2015,07,19,03,26,18.60
2015,07,19,03,27,18.60
2015,07,19,03,28,18.60
2015,07,19,03,29,18.60
2015,07,19,03,30,18.60
2015,07,19,03,31,18.60
2015,07,19,03,32,18.60
2015,07,19,03,33,18.60
2015,07,19,03,34,18.60
2015,07,19,03,35,18.60
2015,07,19,03,36,18.60
2015,07,19,03,37,18.60
2015,07,19,03,38,18.60
2015,07,19,03,39,18.60
2015,07,19,03,40,18.60
2015,07,19,03,41,18.60
2015,07,19,03,42,18.50
2015,07,19,03,43,18.50
2015,07,19,03,44,18.50
2015,07,19,03,45,18.50
2015,07,19,03,46,18.40
2015,07,19,03,47,18.40
2015,07,19,03,48,18.40
2015,07,19,03,49,18.40
2015,07,19,03,50,18.30
2015,07,19,03,51,18.30
2015,07,19,03,52,18.30
2015,07,19,03,53,18.30
2015,07,19,03,54,18.20
2015,07,19,03,55,18.20
2015,07,19,03,56,18.20
2015,07,19,03,57,18.20
2015,07,19,03,58,18.10
2015,07,19,03,59,18.10
2015,07,19,04,00,18.00
2015,07,19,04,01,18.00
2015,07,19,04,02,17.90
2015,07,19,04,03,17.90
2015,07,19,04,04,17.90
2015,07,19,04,05,17.80
2015,07,19,04,06,17.80
2015,07,19,04,07,17.80
2015,07,19,04,08,17.70
2015,07,19,04,09,17.70
2015,07,19,04,10,17.70
2015,07,19,04,11,17.70
2015,07,19,04,12,17.60
2015,07,19,04,13,17.60
2015,07,19,04,14,17.60
2015,07,19,04,15,17.60
2015,07,19,04,16,17.50
2015,07,19,04,17,17.50
2015,07,19,04,18,17.50
2015,07,19,04,19,17.50
2015,07,19,04,20,17.50
2015,07,19,04,21,17.40
2015,07,19,04,22,17.40
2015,07,19,04,23,17.40
2015,07,19,04,24,17.50
2015,07,19,04,25,17.50
2015,07,19,04,26,17.50
2015,07,19,04,27,17.50
2015,07,19,04,28,17.50
2015,07,19,04,29,17.50
2015,07,19,04,30,17.50
2015,07,19,04,31,17.60
2015,07,19,04,32,17.50
2015,07,19,04,33,17.50
2015,07,19,04,34,17.50
2015,07,19,04,35,17.50
2015,07,19,04,36,17.50
2015,07,19,04,37,17.50
2015,07,19,04,38,17.50
2015,07,19,04,39,17.50
2015,07,19,04,40,17.60
2015,07,19,04,41,17.60
2015,07,19,04,42,17.60
2015,07,19,04,43,17.60
2015,07,19,04,44,17.60
2015,07,19,04,45,17.60
2015,07,19,04,46,17.60
2015,07,19,04,47,17.60
2015,07,19,04,48,17.60
2015,07,19,04,49,17.60
2015,07,19,04,50,17.60
2015,07,19,04,51,17.60
2015,07,19,04,52,17.60
2015,07,19,04,53,17.60
2015,07,19,04,54,17.50
2015,07,19,04,55,17.50
2015,07,19,04,56,17.50
2015,07,19,04,57,17.50
2015,07,19,04,58,17.40
2015,07,19,04,59,17.40
2015,07,19,05,00,17.40
2015,07,19,05,01,17.40
2015,07,19,05,02,17.40
2015,07,19,05,03,17.40
2015,07,19,05,04,17.40
2015,07,19,05,05,17.40
2015,07,19,05,06,17.40
2015,07,19,05,07,17.40
2015,07,19,05,08,17.30
2015,07,19,05,09,17.30
2015,07,19,05,10,17.30
2015,07,19,05,11,17.30
2015,07,19,05,12,17.30
2015,07,19,05,13,17.30
2015,07,19,05,14,17.30
2015,07,19,05,15,17.30
2015,07,19,05,16,17.30
2015,07,19,05,17,17.30
2015,07,19,05,18,17.30
2015,07,19,05,19,17.30
2015,07,19,05,20,17.30
2015,07,19,05,21,17.30
2015,07,19,05,22,17.20
2015,07,19,05,23,17.20
2015,07,19,05,24,17.20
2015,07,19,05,25,17.20
2015,07,19,05,26,17.20
2015,07,19,05,27,17.20
2015,07,19,05,28,17.20
2015,07,19,05,29,17.20
2015,07,19,05,30,17.10
2015,07,19,05,31,17.10
2015,07,19,05,32,17.10
2015,07,19,05,33,17.10
2015,07,19,05,34,17.00
2015,07,19,05,35,17.00
2015,07,19,05,36,16.90
2015,07,19,05,37,16.90
2015,07,19,05,38,16.90
2015,07,19,05,39,16.90
2015,07,19,05,40,16.80
2015,07,19,05,41,16.80
2015,07,19,05,42,16.80
2015,07,19,05,43,16.80
2015,07,19,05,44,16.80
2015,07,19,05,45,16.80
2015,07,19,05,46,16.70
2015,07,19,05,47,16.70
2015,07,19,05,48,16.70
2015,07,19,05,49,16.70
2015,07,19,05,50,16.60
2015,07,19,05,51,16.60
2015,07,19,05,52,16.60
2015,07,19,05,53,16.60
2015,07,19,05,54,16.50
2015,07,19,05,55,16.50
2015,07,19,05,56,16.50
2015,07,19,05,57,16.50
2015,07,19,05,58,16.40
2015,07,19,05,59,16.40
2015,07,19,06,00,16.40
2015,07,19,06,01,16.40
2015,07,19,06,02,16.40
2015,07,19,06,03,16.40
2015,07,19,06,04,16.40
2015,07,19,06,05,16.30
2015,07,19,06,06,16.30
2015,07,19,06,07,16.30
2015,07,19,06,08,16.30
2015,07,19,06,09,16.30
2015,07,19,06,10,16.30
2015,07,19,06,11,16.30
2015,07,19,06,12,16.30
2015,07,19,06,13,16.30
2015,07,19,06,14,16.30
2015,07,19,06,15,16.30
2015,07,19,06,16,16.30
2015,07,19,06,17,16.40
2015,07,19,06,18,16.40
2015,07,19,06,19,16.50
2015,07,19,06,20,16.50
2015,07,19,06,21,16.60
2015,07,19,06,22,16.70
2015,07,19,06,23,16.70
2015,07,19,06,24,16.70
2015,07,19,06,25,16.80
2015,07,19,06,26,16.80
2015,07,19,06,27,16.80
2015,07,19,06,28,16.90
2015,07,19,06,29,16.90
2015,07,19,06,30,16.90
2015,07,19,06,31,16.90
2015,07,19,06,32,17.00
2015,07,19,06,33,17.00
2015,07,19,06,34,17.00
2015,07,19,06,35,17.10
2015,07,19,06,36,17.10
2015,07,19,06,37,17.10
2015,07,19,06,38,17.10
2015,07,19,06,39,17.20
2015,07,19,06,40,17.20
2015,07,19,06,41,17.20
2015,07,19,06,42,17.30
2015,07,19,06,43,17.30
2015,07,19,06,44,17.30
2015,07,19,06,45,17.40
2015,07,19,06,46,17.40
2015,07,19,06,47,17.50
2015,07,19,06,48,17.50
2015,07,19,06,49,17.60
2015,07,19,06,50,17.60
2015,07,19,06,51,17.70
2015,07,19,06,52,17.70
2015,07,19,06,53,17.80
2015,07,19,06,54,17.80
2015,07,19,06,55,17.80
2015,07,19,06,56,17.90
2015,07,19,06,57,18.00
2015,07,19,06,58,18.00
2015,07,19,06,59,18.00
2015,07,19,07,00,18.10
2015,07,19,07,01,18.20
2015,07,19,07,02,18.20
2015,07,19,07,03,18.30
2015,07,19,07,04,18.30
2015,07,19,07,05,18.40
2015,07,19,07,06,18.40
2015,07,19,07,07,18.50
2015,07,19,07,08,18.50
2015,07,19,07,09,18.60
2015,07,19,07,10,18.70
2015,07,19,07,11,18.70
2015,07,19,07,12,18.80
2015,07,19,07,13,18.90
2015,07,19,07,14,18.90
2015,07,19,07,15,19.00
2015,07,19,07,16,19.10
2015,07,19,07,17,19.10
2015,07,19,07,18,19.20
2015,07,19,07,19,19.30
2015,07,19,07,20,19.30
2015,07,19,07,21,19.40
2015,07,19,07,22,19.50
2015,07,19,07,23,19.60
2015,07,19,07,24,19.70
2015,07,19,07,25,19.80
2015,07,19,07,26,19.80
2015,07,19,07,27,19.90
2015,07,19,07,28,19.90
2015,07,19,07,29,19.90
2015,07,19,07,30,19.90
2015,07,19,07,31,19.90
2015,07,19,07,32,19.90
2015,07,19,07,33,19.90
2015,07,19,07,34,19.90
2015,07,19,07,35,19.80
2015,07,19,07,36,19.70
2015,07,19,07,37,19.70
2015,07,19,07,38,19.60
2015,07,19,07,39,19.60
2015,07,19,07,40,19.60
2015,07,19,07,41,19.60
2015,07,19,07,42,19.60
2015,07,19,07,43,19.60
2015,07,19,07,44,19.60
2015,07,19,07,45,19.60
2015,07,19,07,46,19.60
2015,07,19,07,47,19.70
2015,07,19,07,48,19.70
2015,07,19,07,49,19.70
2015,07,19,07,50,19.70
2015,07,19,07,51,19.70
2015,07,19,07,52,19.70
2015,07,19,07,53,19.70
2015,07,19,07,54,19.70
2015,07,19,07,55,19.70
2015,07,19,07,56,19.70
2015,07,19,07,57,19.70
2015,07,19,07,58,19.80
2015,07,19,07,59,19.80
2015,07,19,08,00,19.80
2015,07,19,08,01,19.80
2015,07,19,08,02,19.80
2015,07,19,08,03,19.80
2015,07,19,08,04,19.80
2015,07,19,08,05,19.80
2015,07,19,08,06,19.80
2015,07,19,08,07,19.70
2015,07,19,08,08,19.70
2015,07,19,08,09,19.70
2015,07,19,08,10,19.70
2015,07,19,08,11,19.70
2015,07,19,08,12,19.70
2015,07,19,08,13,19.70
2015,07,19,08,14,19.80
2015,07,19,08,15,19.80
2015,07,19,08,16,19.80
2015,07,19,08,17,19.80
2015,07,19,08,18,19.90
2015,07,19,08,19,19.90
2015,07,19,08,20,19.90
2015,07,19,08,21,20.00
2015,07,19,08,22,20.10
2015,07,19,08,23,20.10
2015,07,19,08,24,20.10
2015,07,19,08,25,20.20
2015,07,19,08,26,20.20
2015,07,19,08,27,20.20
2015,07,19,08,28,20.30
2015,07,19,08,29,20.30
2015,07,19,08,30,20.30
2015,07,19,08,31,20.40
2015,07,19,08,32,20.50
2015,07,19,08,33,20.50
2015,07,19,08,34,20.50
2015,07,19,08,35,20.60
2015,07,19,08,36,20.60
2015,07,19,08,37,20.70
2015,07,19,08,38,20.70
2015,07,19,08,39,20.70
2015,07,19,08,40,20.70
2015,07,19,08,41,20.70
2015,07,19,08,42,20.70
2015,07,19,08,43,20.70
2015,07,19,08,44,20.70
2015,07,19,08,45,20.70
2015,07,19,08,46,20.70
2015,07,19,08,47,20.70
2015,07,19,08,48,20.70
2015,07,19,08,49,20.70
2015,07,19,08,50,20.70
2015,07,19,08,51,20.70
2015,07,19,08,52,20.70
2015,07,19,08,53,20.70
2015,07,19,08,54,20.70
2015,07,19,08,55,20.70
2015,07,19,08,56,20.70
2015,07,19,08,57,20.70
2015,07,19,08,58,20.70
2015,07,19,08,59,20.70
2015,07,19,09,00,20.70
2015,07,19,09,01,20.80
2015,07,19,09,02,20.80
2015,07,19,09,03,20.80
2015,07,19,09,04,20.80
2015,07,19,09,05,20.80
2015,07,19,09,06,20.80
2015,07,19,09,07,20.90
2015,07,19,09,08,20.90
2015,07,19,09,09,20.90
2015,07,19,09,10,20.90
2015,07,19,09,11,20.90
2015,07,19,09,12,20.90
2015,07,19,09,13,20.90
2015,07,19,09,14,20.90
2015,07,19,09,15,20.90
2015,07,19,09,16,20.90
2015,07,19,09,17,20.90
2015,07,19,09,18,20.90
2015,07,19,09,19,20.90
2015,07,19,09,20,20.90
2015,07,19,09,21,20.90
2015,07,19,09,22,20.90
2015,07,19,09,23,20.90
2015,07,19,09,24,20.90
2015,07,19,09,25,20.90
2015,07,19,09,26,20.90
2015,07,19,09,27,21.00
2015,07,19,09,28,21.00
2015,07,19,09,29,21.00
2015,07,19,09,30,21.00
2015,07,19,09,31,21.10
2015,07,19,09,32,21.10
2015,07,19,09,33,21.10
2015,07,19,09,34,21.20
2015,07,19,09,35,21.20
2015,07,19,09,36,21.20
2015,07,19,09,37,21.20
2015,07,19,09,38,21.30
2015,07,19,09,39,21.30
2015,07,19,09,40,21.30
2015,07,19,09,41,21.40
2015,07,19,09,42,21.50
2015,07,19,09,43,21.50
2015,07,19,09,44,21.60
2015,07,19,09,45,21.60
2015,07,19,09,46,21.70
2015,07,19,09,47,21.70
2015,07,19,09,48,21.70
2015,07,19,09,49,21.70
2015,07,19,09,50,21.80
2015,07,19,09,51,21.80
2015,07,19,09,52,21.90
2015,07,19,09,53,21.90
2015,07,19,09,54,21.90
2015,07,19,09,55,21.90
2015,07,19,09,56,22.00
2015,07,19,09,57,22.00
2015,07,19,09,58,21.90
2015,07,19,09,59,21.90
2015,07,19,10,00,21.80
2015,07,19,10,01,21.80
2015,07,19,10,02,21.70
2015,07,19,10,03,21.60
2015,07,19,10,04,21.50
2015,07,19,10,05,21.40
2015,07,19,10,06,21.40
2015,07,19,10,07,21.40
2015,07,19,10,08,21.40
2015,07,19,10,09,21.40
2015,07,19,10,10,21.40
2015,07,19,10,11,21.50
2015,07,19,10,12,21.50
2015,07,19,10,13,21.60
2015,07,19,10,14,21.70
2015,07,19,10,15,21.70
2015,07,19,10,16,21.80
2015,07,19,10,17,21.90
2015,07,19,10,18,22.00
2015,07,19,10,19,22.10
2015,07,19,10,20,22.10
2015,07,19,10,21,22.00
2015,07,19,10,22,22.00
2015,07,19,10,23,22.00
2015,07,19,10,24,22.00
2015,07,19,10,25,22.00
2015,07,19,10,26,22.10
2015,07,19,10,27,22.10
2015,07,19,10,28,22.10
2015,07,19,10,29,22.00
2015,07,19,10,30,22.00
2015,07,19,10,31,21.90
2015,07,19,10,32,21.90
2015,07,19,10,33,21.90
2015,07,19,10,34,21.90
2015,07,19,10,35,21.90
2015,07,19,10,36,21.90
2015,07,19,10,37,21.90
2015,07,19,10,38,22.00
2015,07,19,10,39,22.00
2015,07,19,10,40,22.10
2015,07,19,10,41,22.20
2015,07,19,10,42,22.20
2015,07,19,10,43,22.20
2015,07,19,10,44,22.20
2015,07,19,10,45,22.20
2015,07,19,10,46,22.20
2015,07,19,10,47,22.20
2015,07,19,10,48,22.10
2015,07,19,10,49,22.10
2015,07,19,10,50,22.20
2015,07,19,10,51,22.20
2015,07,19,10,52,22.30
2015,07,19,10,53,22.30
2015,07,19,10,54,22.40
2015,07,19,10,55,22.40
2015,07,19,10,56,22.40
2015,07,19,10,57,22.40
2015,07,19,10,58,22.40
2015,07,19,10,59,22.40
2015,07,19,11,00,22.40
2015,07,19,11,01,22.40
2015,07,19,11,02,22.50
2015,07,19,11,03,22.60
2015,07,19,11,04,22.60
2015,07,19,11,05,22.60
2015,07,19,11,06,22.70
2015,07,19,11,07,22.70
2015,07,19,11,08,22.70
2015,07,19,11,09,22.70
2015,07,19,11,10,22.70
2015,07,19,11,11,22.70
2015,07,19,11,12,22.80
2015,07,19,11,13,22.80
2015,07,19,11,14,22.80
2015,07,19,11,15,22.80
2015,07,19,11,16,22.80
2015,07,19,11,17,22.80
2015,07,19,11,18,22.80
2015,07,19,11,19,22.80
2015,07,19,11,20,22.80
2015,07,19,11,21,22.80
2015,07,19,11,22,22.80
2015,07,19,11,23,22.80
2015,07,19,11,24,22.80
2015,07,19,11,25,22.80
2015,07,19,11,26,22.80
2015,07,19,11,27,22.80
2015,07,19,11,28,22.80
2015,07,19,11,29,22.80
2015,07,19,11,30,22.80
2015,07,19,11,31,22.80
2015,07,19,11,32,22.80
2015,07,19,11,33,22.70
2015,07,19,11,34,22.70
2015,07,19,11,35,22.70
2015,07,19,11,36,22.80
2015,07,19,11,37,22.80
2015,07,19,11,38,22.90
2015,07,19,11,39,22.90
2015,07,19,11,40,22.90
2015,07,19,11,41,22.90
2015,07,19,11,42,22.90
2015,07,19,11,43,22.90
2015,07,19,11,44,22.90
2015,07,19,11,45,22.90
2015,07,19,11,46,22.90
2015,07,19,11,47,22.90
2015,07,19,11,48,23.00
2015,07,19,11,49,23.10
2015,07,19,11,50,23.10
2015,07,19,11,51,23.20
2015,07,19,11,52,23.20
2015,07,19,11,53,23.20
2015,07,19,11,54,23.10
2015,07,19,11,55,23.20
2015,07,19,11,56,23.20
2015,07,19,11,57,23.30
2015,07,19,11,58,23.30
2015,07,19,11,59,23.20
2015,07,19,12,00,23.20
2015,07,19,12,01,23.20
2015,07,19,12,02,23.30
2015,07,19,12,03,23.30
2015,07,19,12,04,23.30
2015,07,19,12,05,23.40
2015,07,19,12,06,23.40
2015,07,19,12,07,23.50
2015,07,19,12,08,23.50
2015,07,19,12,09,23.60
2015,07,19,12,10,23.60
2015,07,19,12,11,23.70
2015,07,19,12,12,23.60
2015,07,19,12,13,23.60
2015,07,19,12,14,23.70
2015,07,19,12,15,23.70
2015,07,19,12,16,23.70
2015,07,19,12,17,23.80
2015,07,19,12,18,23.80
2015,07,19,12,19,23.80
2015,07,19,12,20,23.80
2015,07,19,12,21,23.90
2015,07,19,12,22,24.00
2015,07,19,12,23,24.00
2015,07,19,12,24,24.10
2015,07,19,12,25,24.10
2015,07,19,12,26,24.10
2015,07,19,12,27,24.10
2015,07,19,12,28,24.00
2015,07,19,12,29,24.00
2015,07,19,12,30,24.00
2015,07,19,12,31,24.00
2015,07,19,12,32,24.00
2015,07,19,12,33,24.10
2015,07,19,12,34,24.10
2015,07,19,12,35,24.10
2015,07,19,12,36,24.10
2015,07,19,12,37,24.10
2015,07,19,12,38,24.10
2015,07,19,12,39,24.10
2015,07,19,12,40,24.10
2015,07,19,12,41,24.20
2015,07,19,12,42,24.20
2015,07,19,12,43,24.30
2015,07,19,12,44,24.30
2015,07,19,12,45,24.30
2015,07,19,12,46,24.40
2015,07,19,12,47,24.50
2015,07,19,12,48,24.60
2015,07,19,12,49,24.50
2015,07,19,12,50,24.50
2015,07,19,12,51,24.50
2015,07,19,12,52,24.50
2015,07,19,12,53,24.40
2015,07,19,12,54,24.40
2015,07,19,12,55,24.40
2015,07,19,12,56,24.40
2015,07,19,12,57,24.50
2015,07,19,12,58,24.50
2015,07,19,12,59,24.60
2015,07,19,13,00,24.60
2015,07,19,13,01,24.70
2015,07,19,13,02,24.80
2015,07,19,13,03,24.90
2015,07,19,13,04,25.00
2015,07,19,13,05,25.10
2015,07,19,13,06,25.10
2015,07,19,13,07,25.10
2015,07,19,13,08,25.10
2015,07,19,13,09,25.10
2015,07,19,13,10,25.10
2015,07,19,13,11,25.10
2015,07,19,13,12,25.10
2015,07,19,13,13,25.10
2015,07,19,13,14,25.20
2015,07,19,13,15,25.20
2015,07,19,13,16,25.20
2015,07,19,13,17,25.20
2015,07,19,13,18,25.30
2015,07,19,13,19,25.40
2015,07,19,13,20,25.40
2015,07,19,13,21,25.50
2015,07,19,13,22,25.50
2015,07,19,13,23,25.50
2015,07,19,13,24,25.50
2015,07,19,13,25,25.50
2015,07,19,13,26,25.50
2015,07,19,13,27,25.40
2015,07,19,13,28,25.40
2015,07,19,13,29,25.30
2015,07,19,13,30,25.30
2015,07,19,13,31,25.30
2015,07,19,13,32,25.30
2015,07,19,13,33,25.40
2015,07,19,13,34,25.50
2015,07,19,13,35,25.60
2015,07,19,13,36,25.70
2015,07,19,13,37,25.90
2015,07,19,13,38,26.00
2015,07,19,13,39,26.10
2015,07,19,13,40,26.10
2015,07,19,13,41,26.10
2015,07,19,13,42,26.00
2015,07,19,13,43,26.00
2015,07,19,13,44,26.00
2015,07,19,13,45,26.10
2015,07,19,13,46,26.10
2015,07,19,13,47,26.10
2015,07,19,13,48,26.00
2015,07,19,13,49,26.00
2015,07,19,13,50,25.90
2015,07,19,13,51,25.90
2015,07,19,13,52,25.80
2015,07,19,13,53,25.80
2015,07,19,13,54,25.80
2015,07,19,13,55,25.90
2015,07,19,13,56,26.00
2015,07,19,13,57,26.10
2015,07,19,13,58,26.10
2015,07,19,13,59,26.10
2015,07,19,14,00,26.10
2015,07,19,14,01,26.10
2015,07,19,14,02,26.20
2015,07,19,14,03,26.30
2015,07,19,14,04,26.50
2015,07,19,14,05,26.60
2015,07,19,14,06,26.70
2015,07,19,14,07,26.80
2015,07,19,14,08,26.90
2015,07,19,14,09,27.00
2015,07,19,14,10,27.10
2015,07,19,14,11,27.20
2015,07,19,14,12,27.20
2015,07,19,14,13,27.30
2015,07,19,14,14,27.40
2015,07,19,14,15,27.40
2015,07,19,14,16,27.50
2015,07,19,14,17,27.60
2015,07,19,14,18,27.60
2015,07,19,14,19,27.60
2015,07,19,14,20,27.50
2015,07,19,14,21,27.50
2015,07,19,14,22,27.40
2015,07,19,14,23,27.40
2015,07,19,14,24,27.40
2015,07,19,14,25,27.30
2015,07,19,14,26,27.30
2015,07,19,14,27,27.20
2015,07,19,14,28,27.10
2015,07,19,14,29,27.10
2015,07,19,14,30,27.10
2015,07,19,14,31,27.10
2015,07,19,14,32,27.00
2015,07,19,14,33,27.00
2015,07,19,14,34,27.10
2015,07,19,14,35,27.20
2015,07,19,14,36,27.20
2015,07,19,14,37,27.30
2015,07,19,14,38,27.40
2015,07,19,14,39,27.50
2015,07,19,14,40,27.50
2015,07,19,14,41,27.60
2015,07,19,14,42,27.60
2015,07,19,14,43,27.70
2015,07,19,14,44,27.70
2015,07,19,14,45,27.70
2015,07,19,14,46,27.60
2015,07,19,14,47,27.60
2015,07,19,14,48,27.60
2015,07,19,14,49,27.60
2015,07,19,14,50,27.60
2015,07,19,14,51,27.70
2015,07,19,14,52,27.70
2015,07,19,14,53,27.70
2015,07,19,14,54,27.70
2015,07,19,14,55,27.60
2015,07,19,14,56,27.60
2015,07,19,14,57,27.50
2015,07,19,14,58,27.50
2015,07,19,14,59,27.40
2015,07,19,15,00,27.50
2015,07,19,15,01,27.50
2015,07,19,15,02,27.60
2015,07,19,15,03,27.60
2015,07,19,15,04,27.70
2015,07,19,15,05,27.70
2015,07,19,15,06,27.70
2015,07,19,15,07,27.70
2015,07,19,15,08,27.70
2015,07,19,15,09,27.70
2015,07,19,15,10,27.60
2015,07,19,15,11,27.60
2015,07,19,15,12,27.60
2015,07,19,15,13,27.60
2015,07,19,15,14,27.60
2015,07,19,15,15,27.70
2015,07,19,15,16,27.80
2015,07,19,15,17,27.90
2015,07,19,15,18,28.10
2015,07,19,15,19,28.20
2015,07,19,15,20,28.20
2015,07,19,15,21,28.20
2015,07,19,15,22,28.30
2015,07,19,15,23,28.30
2015,07,19,15,24,28.40
2015,07,19,15,25,28.50
2015,07,19,15,26,28.50
2015,07,19,15,27,28.50
2015,07,19,15,28,28.50
2015,07,19,15,29,28.40
2015,07,19,15,30,28.40
2015,07,19,15,31,28.40
2015,07,19,15,32,28.30
2015,07,19,15,33,28.30
2015,07,19,15,34,28.30
2015,07,19,15,35,28.30
2015,07,19,15,36,28.20
2015,07,19,15,37,28.30
2015,07,19,15,38,28.30
2015,07,19,15,39,28.30
2015,07,19,15,40,28.30
2015,07,19,15,41,28.30
2015,07,19,15,42,28.30
2015,07,19,15,43,28.30
2015,07,19,15,44,28.30
2015,07,19,15,45,28.30
2015,07,19,15,46,28.30
2015,07,19,15,47,28.20
2015,07,19,15,48,28.20
2015,07,19,15,49,28.10
2015,07,19,15,50,28.10
2015,07,19,15,51,28.10
2015,07,19,15,52,28.10
2015,07,19,15,53,28.20
2015,07,19,15,54,28.20
2015,07,19,15,55,28.30
2015,07,19,15,56,28.40
2015,07,19,15,57,28.50
2015,07,19,15,58,28.50
2015,07,19,15,59,28.60
2015,07,19,16,00,28.70
2015,07,19,16,01,28.70
2015,07,19,16,02,28.80
2015,07,19,16,03,28.80
2015,07,19,16,04,28.80
2015,07,19,16,05,28.90
2015,07,19,16,06,28.90
2015,07,19,16,07,28.90
2015,07,19,16,08,28.90
2015,07,19,16,09,28.90
2015,07,19,16,10,28.80
2015,07,19,16,11,28.70
2015,07,19,16,12,28.60
2015,07,19,16,13,28.50
2015,07,19,16,14,28.40
2015,07,19,16,15,28.40
2015,07,19,16,16,28.30
2015,07,19,16,17,28.20
2015,07,19,16,18,28.20
2015,07,19,16,19,28.20
2015,07,19,16,20,28.20
2015,07,19,16,21,28.20
2015,07,19,16,22,28.20
2015,07,19,16,23,28.30
2015,07,19,16,24,28.40
2015,07,19,16,25,28.40
2015,07,19,16,26,28.40
2015,07,19,16,27,28.40
2015,07,19,16,28,28.30
2015,07,19,16,29,28.30
2015,07,19,16,30,28.30
2015,07,19,16,31,28.20
2015,07,19,16,32,28.10
2015,07,19,16,33,28.10
2015,07,19,16,34,28.10
2015,07,19,16,35,28.10
2015,07,19,16,36,28.10
2015,07,19,16,37,28.10
2015,07,19,16,38,28.10
2015,07,19,16,39,28.20
2015,07,19,16,40,28.20
2015,07,19,16,41,28.20
2015,07,19,16,42,28.10
2015,07,19,16,43,28.10
2015,07,19,16,44,28.10
2015,07,19,16,45,28.10
2015,07,19,16,46,28.10
2015,07,19,16,47,28.10
2015,07,19,16,48,28.10
2015,07,19,16,49,28.10
2015,07,19,16,50,28.10
2015,07,19,16,51,28.10
2015,07,19,16,52,28.10
2015,07,19,16,53,28.20
2015,07,19,16,54,28.20
2015,07,19,16,55,28.20
2015,07,19,16,56,28.30
2015,07,19,16,57,28.30
2015,07,19,16,58,28.40
2015,07,19,16,59,28.40
2015,07,19,17,00,28.40
2015,07,19,17,01,28.40
2015,07,19,17,02,28.40
2015,07,19,17,03,28.50
2015,07,19,17,04,28.50
2015,07,19,17,05,28.50
2015,07,19,17,06,28.50
2015,07,19,17,07,28.50
2015,07,19,17,08,28.50
2015,07,19,17,09,28.50
2015,07,19,17,10,28.60
2015,07,19,17,11,28.60
2015,07,19,17,12,28.60
2015,07,19,17,13,28.70
2015,07,19,17,14,28.70
2015,07,19,17,15,28.70
2015,07,19,17,16,28.70
2015,07,19,17,17,28.70
2015,07,19,17,18,28.80
2015,07,19,17,19,28.80